Regional Weather Roundup
Issued by NWS Charleston, WV

Home | Current Version | Previous Version | Text Only | Print | Product List | Glossary On
Versions: 1 2 3 4 5 6 7 8 9 10 11 12 13 14 15 16 17 18 19 20 21 22 23 24 25 26 27 28 29 30 31 32 33 34 35 36 37 38 39 40 41 42 43 44 45 46 47 48 49 50
000
ASUS41 KRLX 252010
RWRRLX
West Virginia Regional Weather Roundup
National Weather Service Charleston WV
400 PM EDT FRI MAY 25 2018

Note: "fair" indicates few or no clouds below 12,000 feet with no
significant weather and/or obstructions to visibility.

WVZ003-252100-
Northern Panhandle of West Virginia

CITY           SKY/WX    TMP DP  RH WIND       PRES   REMARKS
WHEELING       FAIR      83  61  47 VRB7      29.95F
$$

WVZ009-252100-
Northwest West Virginia

CITY           SKY/WX    TMP DP  RH WIND       PRES   REMARKS
PARKERSBURG    PTSUNNY   84  65  52 SW10      29.97F
$$

WVZ006-252100-
Western West Virginia

CITY           SKY/WX    TMP DP  RH WIND       PRES   REMARKS
HUNTINGTON     LGT RAIN  79  70  74 VRB5      29.94F
$$

WVZ015-252100-
West Central West Virginia

CITY           SKY/WX    TMP DP  RH WIND       PRES   REMARKS
CHARLESTON     FAIR      87  66  49 VRB7      29.95F
$$

WVZ022-031-252100-
North Central West Virginia

CITY           SKY/WX    TMP DP  RH WIND       PRES   REMARKS
CLARKSBURG     FAIR      86  64  47 VRB6      29.96F
MORGANTOWN     FAIR      84  60  44 SW9       29.96F
$$

WVZ025-035-042-045-252100-
Southern West Virginia

CITY           SKY/WX    TMP DP  RH WIND       PRES   REMARKS
BECKLEY        CLOUDY    76  60  57 S8        30.04F
LOGAN          FAIR      82  66  57 VRB5      29.98F
BLUEFIELD      PTSUNNY   74  60  61 VRB7      30.07F
LEWISBURG      PTSUNNY   81  62  52 SW9       30.05F
$$

WVZ047-252100-
Northern Mountains of West Virginia

CITY           SKY/WX    TMP DP  RH WIND       PRES   REMARKS
ELKINS         FAIR      85  63  47 NW6       29.99F
$$

WVZ052-252100-
Eastern Panhandle of West Virginia

CITY           SKY/WX    TMP DP  RH WIND       PRES   REMARKS
MARTINSBURG    FAIR      86  62  44 VRB6      29.91F
PETERSBURG     FAIR      84  64  50 S8        29.92F
$$



USA.gov is the U.S. government's official web portal to all federal, state and local government web resources and services.